contact:dominique.lefevre@mio.osupytheas.fr, maurice.libes@osupytheas.fr, didier.mallarino@osupytheas.fr
Project:EMSO http://www.emso-fr.org/EMSO-France
Depth: 2436.0 m
Title:EMSO Ligure Ouest : Data MII capteur MICROCAT
DateTime_Computer,Latitude,Longitude,Temperature,Conductivity,Pressure,DateTime_Instrument
DateTime_Computer,Latitude,Longitude,degC,S m-1,dbar,DateTime_Instrument
2021-11-01T00:00:45Z,42.805,6.029,13.3006,4.60045,2470.39,2021-11-01T02:02:10Z
2021-11-01T00:03:49Z,42.805,6.029,13.3013,4.60066,2470.427,2021-11-01T02:05:13Z
2021-11-01T00:06:52Z,42.805,6.029,13.2997,4.60057,2470.404,2021-11-01T02:08:16Z
2021-11-01T00:09:55Z,42.805,6.029,13.3003,4.60064,2470.413,2021-11-01T02:11:20Z
2021-11-01T00:12:58Z,42.805,6.029,13.2999,4.60055,2470.39,2021-11-01T02:14:23Z
2021-11-01T00:16:01Z,42.805,6.029,13.3004,4.60062,2470.45,2021-11-01T02:17:26Z
2021-11-01T00:19:04Z,42.805,6.029,13.2998,4.60053,2470.39,2021-11-01T02:20:29Z
2021-11-01T00:22:07Z,42.805,6.029,13.3003,4.60062,2470.413,2021-11-01T02:23:32Z
2021-11-01T00:25:10Z,42.805,6.029,13.3011,4.60056,2470.413,2021-11-01T02:26:35Z
2021-11-01T00:28:14Z,42.805,6.029,13.3006,4.60058,2470.413,2021-11-01T02:29:38Z
2021-11-01T00:31:17Z,42.805,6.029,13.3006,4.60042,2470.413,2021-11-01T02:32:41Z
2021-11-01T00:34:20Z,42.805,6.029,13.3002,4.60051,2470.427,2021-11-01T02:35:45Z
2021-11-01T00:37:23Z,42.805,6.029,13.3004,4.60052,2470.404,2021-11-01T02:38:48Z
2021-11-01T00:40:26Z,42.805,6.029,13.3006,4.60041,2470.399,2021-11-01T02:41:51Z
2021-11-01T00:43:29Z,42.805,6.029,13.3001,4.60052,2470.39,2021-11-01T02:44:54Z
2021-11-01T00:46:32Z,42.805,6.029,13.3014,4.60060,2470.404,2021-11-01T02:47:57Z
2021-11-01T00:49:35Z,42.805,6.029,13.3008,4.60076,2470.427,2021-11-01T02:51:00Z
2021-11-01T00:52:38Z,42.805,6.029,13.3005,4.60051,2470.413,2021-11-01T02:54:03Z
2021-11-01T00:55:42Z,42.805,6.029,13.3003,4.60058,2470.413,2021-11-01T02:57:06Z
2021-11-01T00:58:45Z,42.805,6.029,13.3009,4.60057,2470.413,2021-11-01T03:00:10Z
2021-11-01T01:01:48Z,42.805,6.029,13.3007,4.60060,2470.413,2021-11-01T03:03:13Z
2021-11-01T01:04:51Z,42.805,6.029,13.3004,4.60082,2470.427,2021-11-01T03:06:16Z
2021-11-01T01:07:54Z,42.805,6.029,13.3007,4.60074,2470.413,2021-11-01T03:09:19Z
2021-11-01T01:10:57Z,42.805,6.029,13.3018,4.60065,2470.427,2021-11-01T03:12:22Z
2021-11-01T01:14:00Z,42.805,6.029,13.3009,4.60079,2470.427,2021-11-01T03:15:25Z
2021-11-01T01:17:03Z,42.805,6.029,13.3004,4.60104,2470.45,2021-11-01T03:18:28Z
2021-11-01T01:20:06Z,42.805,6.029,13.3029,4.60080,2470.437,2021-11-01T03:21:31Z
2021-11-01T01:23:10Z,42.805,6.029,13.3022,4.60075,2470.427,2021-11-01T03:24:34Z
2021-11-01T01:26:13Z,42.805,6.029,13.3026,4.60087,2470.423,2021-11-01T03:27:38Z
2021-11-01T01:29:16Z,42.805,6.029,13.3036,4.60074,2470.437,2021-11-01T03:30:41Z
2021-11-01T01:32:19Z,42.805,6.029,13.3012,4.60061,2470.45,2021-11-01T03:33:44Z
2021-11-01T01:35:22Z,42.805,6.029,13.3017,4.60063,2470.45,2021-11-01T03:36:47Z
2021-11-01T01:38:25Z,42.805,6.029,13.3010,4.60070,2470.45,2021-11-01T03:39:50Z
2021-11-01T01:41:28Z,42.805,6.029,13.3012,4.60084,2470.437,2021-11-01T03:42:53Z
2021-11-01T01:44:31Z,42.805,6.029,13.3013,4.60079,2470.45,2021-11-01T03:45:56Z
2021-11-01T01:47:35Z,42.805,6.029,13.3027,4.60085,2470.437,2021-11-01T03:48:59Z
2021-11-01T01:50:38Z,42.805,6.029,13.3021,4.60078,2470.45,2021-11-01T03:52:03Z
2021-11-01T01:53:41Z,42.805,6.029,13.3026,4.60091,2470.45,2021-11-01T03:55:06Z
2021-11-01T01:56:44Z,42.805,6.029,13.3019,4.60075,2470.437,2021-11-01T03:58:09Z
2021-11-01T01:59:47Z,42.805,6.029,13.2998,4.60075,2470.437,2021-11-01T04:01:12Z
2021-11-01T02:02:50Z,42.805,6.029,13.3019,4.60082,2470.46,2021-11-01T04:04:15Z
2021-11-01T02:05:53Z,42.805,6.029,13.3016,4.60087,2470.437,2021-11-01T04:07:18Z
2021-11-01T02:08:56Z,42.805,6.029,13.3019,4.60076,2470.45,2021-11-01T04:10:21Z
2021-11-01T02:12:00Z,42.805,6.029,13.3014,4.60081,2470.46,2021-11-01T04:13:24Z
2021-11-01T02:15:03Z,42.805,6.029,13.3015,4.60108,2470.45,2021-11-01T04:16:27Z
2021-11-01T02:18:06Z,42.805,6.029,13.3029,4.60046,2470.474,2021-11-01T04:19:31Z
2021-11-01T02:21:09Z,42.805,6.029,13.3038,4.60090,2470.474,2021-11-01T04:22:34Z
2021-11-01T02:24:12Z,42.805,6.029,13.3015,4.60096,2470.483,2021-11-01T04:25:37Z
2021-11-01T02:27:15Z,42.805,6.029,13.3043,4.60087,2470.437,2021-11-01T04:28:40Z
2021-11-01T02:30:18Z,42.805,6.029,13.3048,4.60092,2470.437,2021-11-01T04:31:43Z
2021-11-01T02:33:21Z,42.805,6.029,13.3026,4.60099,2470.46,2021-11-01T04:34:46Z
2021-11-01T02:36:24Z,42.805,6.029,13.3026,4.60103,2470.474,2021-11-01T04:37:49Z
2021-11-01T02:39:28Z,42.805,6.029,13.3046,4.60072,2470.437,2021-11-01T04:40:52Z
2021-11-01T02:42:31Z,42.805,6.029,13.3035,4.60092,2470.497,2021-11-01T04:43:56Z
2021-11-01T02:45:34Z,42.805,6.029,13.3041,4.60113,2470.45,2021-11-01T04:46:59Z
2021-11-01T02:48:37Z,42.805,6.029,13.3047,4.60094,2470.46,2021-11-01T04:50:02Z
2021-11-01T02:51:40Z,42.805,6.029,13.3037,4.60105,2470.46,2021-11-01T04:53:05Z
2021-11-01T02:54:43Z,42.805,6.029,13.3039,4.60087,2470.474,2021-11-01T04:56:08Z
2021-11-01T02:57:46Z,42.805,6.029,13.3066,4.60077,2470.483,2021-11-01T04:59:11Z
2021-11-01T03:00:49Z,42.805,6.029,13.3031,4.60134,2470.474,2021-11-01T05:02:14Z
2021-11-01T03:03:53Z,42.805,6.029,13.3070,4.60089,2470.46,2021-11-01T05:05:17Z
2021-11-01T03:06:56Z,42.805,6.029,13.3041,4.60101,2470.497,2021-11-01T05:08:20Z
2021-11-01T03:09:59Z,42.805,6.029,13.3070,4.60127,2470.45,2021-11-01T05:11:24Z
2021-11-01T03:13:02Z,42.805,6.029,13.3065,4.60094,2470.46,2021-11-01T05:14:27Z
2021-11-01T03:16:05Z,42.805,6.029,13.3039,4.60162,2470.474,2021-11-01T05:17:30Z
2021-11-01T03:19:08Z,42.805,6.029,13.3061,4.60086,2470.474,2021-11-01T05:20:33Z
2021-11-01T03:22:11Z,42.805,6.029,13.3054,4.60084,2470.474,2021-11-01T05:23:36Z
2021-11-01T03:25:14Z,42.805,6.029,13.3036,4.60117,2470.497,2021-11-01T05:26:39Z
2021-11-01T03:28:17Z,42.805,6.029,13.3068,4.60098,2470.45,2021-11-01T05:29:42Z
2021-11-01T03:31:21Z,42.805,6.029,13.3053,4.60086,2470.52,2021-11-01T05:32:45Z
2021-11-01T03:34:24Z,42.805,6.029,13.3036,4.60112,2470.497,2021-11-01T05:35:49Z
2021-11-01T03:37:27Z,42.805,6.029,13.3049,4.60107,2470.474,2021-11-01T05:38:52Z
2021-11-01T03:40:30Z,42.805,6.029,13.3027,4.60113,2470.497,2021-11-01T05:41:55Z
2021-11-01T03:43:33Z,42.805,6.029,13.3056,4.60077,2470.483,2021-11-01T05:44:58Z
2021-11-01T03:46:36Z,42.805,6.029,13.3056,4.60114,2470.497,2021-11-01T05:48:01Z
2021-11-01T03:49:39Z,42.805,6.029,13.3031,4.60145,2470.483,2021-11-01T05:51:04Z
2021-11-01T03:52:42Z,42.805,6.029,13.3058,4.60077,2470.53,2021-11-01T05:54:07Z
2021-11-01T03:55:46Z,42.805,6.029,13.3028,4.60105,2470.497,2021-11-01T05:57:10Z
2021-11-01T03:58:49Z,42.805,6.029,13.3033,4.60109,2470.497,2021-11-01T06:00:13Z
2021-11-01T04:01:52Z,42.805,6.029,13.3064,4.60096,2470.483,2021-11-01T06:03:17Z
2021-11-01T04:04:55Z,42.805,6.029,13.3052,4.60105,2470.474,2021-11-01T06:06:20Z
2021-11-01T04:07:58Z,42.805,6.029,13.3056,4.60116,2470.507,2021-11-01T06:09:23Z
2021-11-01T04:11:01Z,42.805,6.029,13.3061,4.60120,2470.483,2021-11-01T06:12:26Z
2021-11-01T04:14:04Z,42.805,6.029,13.3045,4.60135,2470.507,2021-11-01T06:15:29Z
2021-11-01T04:17:07Z,42.805,6.029,13.3063,4.60132,2470.474,2021-11-01T06:18:32Z
2021-11-01T04:20:11Z,42.805,6.029,13.3026,4.60080,2470.474,2021-11-01T06:21:35Z
2021-11-01T04:23:14Z,42.805,6.029,13.3035,4.60137,2470.507,2021-11-01T06:24:38Z
2021-11-01T04:26:17Z,42.805,6.029,13.3069,4.60074,2470.52,2021-11-01T06:27:42Z
2021-11-01T04:29:20Z,42.805,6.029,13.3071,4.60108,2470.483,2021-11-01T06:30:45Z
2021-11-01T04:32:23Z,42.805,6.029,13.3070,4.60101,2470.437,2021-11-01T06:33:48Z
2021-11-01T04:35:26Z,42.805,6.029,13.3078,4.60094,2470.52,2021-11-01T06:36:51Z
2021-11-01T04:38:29Z,42.805,6.029,13.3079,4.60089,2470.52,2021-11-01T06:39:54Z
2021-11-01T04:41:32Z,42.805,6.029,13.3060,4.60067,2470.497,2021-11-01T06:42:57Z
2021-11-01T04:44:35Z,42.805,6.029,13.3065,4.60060,2470.52,2021-11-01T06:46:00Z
2021-11-01T04:47:39Z,42.805,6.029,13.3057,4.60064,2470.497,2021-11-01T06:49:03Z
2021-11-01T04:50:42Z,42.805,6.029,13.3048,4.60062,2470.474,2021-11-01T06:52:07Z
2021-11-01T04:53:45Z,42.805,6.029,13.3049,4.60066,2470.52,2021-11-01T06:55:10Z
2021-11-01T04:56:48Z,42.805,6.029,13.3057,4.60052,2470.497,2021-11-01T06:58:13Z
2021-11-01T04:59:51Z,42.805,6.029,13.3034,4.60071,2470.507,2021-11-01T07:01:16Z
2021-11-01T05:02:54Z,42.805,6.029,13.3052,4.60039,2470.46,2021-11-01T07:04:19Z
2021-11-01T05:05:57Z,42.805,6.029,13.3010,4.60068,2470.483,2021-11-01T07:07:22Z
2021-11-01T05:09:00Z,42.805,6.029,13.3037,4.60058,2470.474,2021-11-01T07:10:25Z
2021-11-01T05:12:04Z,42.805,6.029,13.3041,4.60070,2470.507,2021-11-01T07:13:28Z
2021-11-01T05:15:07Z,42.805,6.029,13.3033,4.60060,2470.52,2021-11-01T07:16:31Z
2021-11-01T05:18:10Z,42.805,6.029,13.3039,4.60050,2470.474,2021-11-01T07:19:35Z
2021-11-01T05:21:13Z,42.805,6.029,13.3034,4.60054,2470.46,2021-11-01T07:22:38Z
2021-11-01T05:24:16Z,42.805,6.029,13.3040,4.60051,2470.507,2021-11-01T07:25:41Z
2021-11-01T05:27:19Z,42.805,6.029,13.3050,4.60058,2470.497,2021-11-01T07:28:44Z
2021-11-01T05:30:22Z,42.805,6.029,13.3019,4.60042,2470.483,2021-11-01T07:31:47Z
2021-11-01T05:33:25Z,42.805,6.029,13.3022,4.60033,2470.483,2021-11-01T07:34:50Z
2021-11-01T05:36:28Z,42.805,6.029,13.3034,4.60051,2470.507,2021-11-01T07:37:53Z
2021-11-01T05:39:32Z,42.805,6.029,13.3026,4.60037,2470.483,2021-11-01T07:40:56Z
2021-11-01T05:42:35Z,42.805,6.029,13.3023,4.60042,2470.46,2021-11-01T07:44:00Z
2021-11-01T05:45:38Z,42.805,6.029,13.3027,4.60050,2470.497,2021-11-01T07:47:03Z
2021-11-01T05:48:41Z,42.805,6.029,13.3021,4.60042,2470.474,2021-11-01T07:50:06Z
2021-11-01T05:51:44Z,42.805,6.029,13.3023,4.60053,2470.497,2021-11-01T07:53:09Z
2021-11-01T05:54:47Z,42.805,6.029,13.3014,4.60026,2470.46,2021-11-01T07:56:12Z
2021-11-01T05:57:50Z,42.805,6.029,13.3011,4.60061,2470.46,2021-11-01T07:59:15Z
2021-11-01T06:00:53Z,42.805,6.029,13.3039,4.60058,2470.474,2021-11-01T08:02:18Z
2021-11-01T06:03:57Z,42.805,6.029,13.3033,4.60036,2470.474,2021-11-01T08:05:21Z
2021-11-01T06:07:00Z,42.805,6.029,13.3006,4.60031,2470.46,2021-11-01T08:08:24Z
2021-11-01T06:10:03Z,42.805,6.029,13.3015,4.60049,2470.45,2021-11-01T08:11:28Z
2021-11-01T06:13:06Z,42.805,6.029,13.3020,4.60052,2470.46,2021-11-01T08:14:31Z
2021-11-01T06:16:09Z,42.805,6.029,13.3019,4.60046,2470.474,2021-11-01T08:17:34Z
2021-11-01T06:19:12Z,42.805,6.029,13.3020,4.60029,2470.483,2021-11-01T08:20:37Z
2021-11-01T06:22:15Z,42.805,6.029,13.3011,4.60026,2470.46,2021-11-01T08:23:40Z
2021-11-01T06:25:18Z,42.805,6.029,13.3012,4.60034,2470.497,2021-11-01T08:26:43Z
2021-11-01T06:28:21Z,42.805,6.029,13.3020,4.60053,2470.497,2021-11-01T08:29:46Z
2021-11-01T06:31:25Z,42.805,6.029,13.3049,4.60068,2470.474,2021-11-01T08:32:49Z
2021-11-01T06:34:28Z,42.805,6.029,13.3015,4.60064,2470.483,2021-11-01T08:35:53Z
2021-11-01T06:37:31Z,42.805,6.029,13.3063,4.60039,2470.474,2021-11-01T08:38:56Z
2021-11-01T06:40:34Z,42.805,6.029,13.3032,4.60060,2470.437,2021-11-01T08:41:59Z
2021-11-01T06:43:37Z,42.805,6.029,13.3038,4.60052,2470.474,2021-11-01T08:45:02Z
2021-11-01T06:46:40Z,42.805,6.029,13.3036,4.60044,2470.46,2021-11-01T08:48:05Z
2021-11-01T06:49:43Z,42.805,6.029,13.3027,4.60053,2470.474,2021-11-01T08:51:08Z
2021-11-01T06:52:46Z,42.805,6.029,13.3043,4.60045,2470.45,2021-11-01T08:54:11Z
2021-11-01T06:55:50Z,42.805,6.029,13.3031,4.60029,2470.46,2021-11-01T08:57:14Z
2021-11-01T06:58:53Z,42.805,6.029,13.3019,4.60058,2470.46,2021-11-01T09:00:17Z
2021-11-01T07:01:56Z,42.805,6.029,13.3031,4.60035,2470.474,2021-11-01T09:03:21Z
2021-11-01T07:04:59Z,42.805,6.029,13.3061,4.60044,2470.474,2021-11-01T09:06:24Z
2021-11-01T07:08:02Z,42.805,6.029,13.3050,4.60039,2470.46,2021-11-01T09:09:27Z
2021-11-01T07:11:05Z,42.805,6.029,13.3034,4.60062,2470.437,2021-11-01T09:12:30Z
2021-11-01T07:14:08Z,42.805,6.029,13.3045,4.60043,2470.437,2021-11-01T09:15:33Z
2021-11-01T07:17:11Z,42.805,6.029,13.3031,4.60039,2470.46,2021-11-01T09:18:36Z
2021-11-01T07:20:14Z,42.805,6.029,13.3048,4.60054,2470.45,2021-11-01T09:21:39Z
2021-11-01T07:23:18Z,42.805,6.029,13.3014,4.60082,2470.413,2021-11-01T09:24:42Z
2021-11-01T07:26:21Z,42.805,6.029,13.3041,4.60092,2470.413,2021-11-01T09:27:46Z
2021-11-01T07:29:24Z,42.805,6.029,13.3044,4.60072,2470.437,2021-11-01T09:30:49Z
2021-11-01T07:32:27Z,42.805,6.029,13.3048,4.60087,2470.437,2021-11-01T09:33:52Z
2021-11-01T07:35:30Z,42.805,6.029,13.3084,4.60065,2470.437,2021-11-01T09:36:55Z
2021-11-01T07:38:33Z,42.805,6.029,13.3052,4.60041,2470.45,2021-11-01T09:39:58Z
2021-11-01T07:41:36Z,42.805,6.029,13.3032,4.60066,2470.437,2021-11-01T09:43:01Z
2021-11-01T07:44:39Z,42.805,6.029,13.3026,4.60065,2470.45,2021-11-01T09:46:04Z
2021-11-01T07:47:43Z,42.805,6.029,13.3055,4.60099,2470.437,2021-11-01T09:49:07Z
2021-11-01T07:50:46Z,42.805,6.029,13.3036,4.60088,2470.427,2021-11-01T09:52:10Z
2021-11-01T07:53:49Z,42.805,6.029,13.3036,4.60047,2470.413,2021-11-01T09:55:14Z
2021-11-01T07:56:52Z,42.805,6.029,13.3041,4.60050,2470.404,2021-11-01T09:58:17Z
2021-11-01T07:59:55Z,42.805,6.029,13.3039,4.60027,2470.427,2021-11-01T10:01:20Z
2021-11-01T08:02:58Z,42.805,6.029,13.3036,4.60049,2470.437,2021-11-01T10:04:23Z
2021-11-01T08:06:01Z,42.805,6.029,13.3015,4.60051,2470.45,2021-11-01T10:07:26Z
2021-11-01T08:09:04Z,42.805,6.029,13.3012,4.60074,2470.404,2021-11-01T10:10:29Z
2021-11-01T08:12:07Z,42.805,6.029,13.3034,4.60093,2470.413,2021-11-01T10:13:32Z
2021-11-01T08:15:11Z,42.805,6.029,13.3044,4.60060,2470.413,2021-11-01T10:16:35Z
2021-11-01T08:18:14Z,42.805,6.029,13.3028,4.60075,2470.45,2021-11-01T10:19:39Z
2021-11-01T08:21:17Z,42.805,6.029,13.3014,4.60074,2470.413,2021-11-01T10:22:42Z
2021-11-01T08:24:20Z,42.805,6.029,13.3049,4.60048,2470.427,2021-11-01T10:25:45Z
2021-11-01T08:27:23Z,42.805,6.029,13.3046,4.60125,2470.404,2021-11-01T10:28:48Z
2021-11-01T08:30:26Z,42.805,6.029,13.3038,4.60028,2470.39,2021-11-01T10:31:51Z
2021-11-01T08:33:29Z,42.805,6.029,13.3038,4.60058,2470.437,2021-11-01T10:34:54Z
2021-11-01T08:36:33Z,42.805,6.029,13.3048,4.60072,2470.413,2021-11-01T10:37:57Z
2021-11-01T08:39:36Z,42.805,6.029,13.3052,4.60062,2470.39,2021-11-01T10:41:00Z
2021-11-01T08:42:39Z,42.805,6.029,13.3070,4.60052,2470.39,2021-11-01T10:44:04Z
2021-11-01T08:45:42Z,42.805,6.029,13.3033,4.60093,2470.39,2021-11-01T10:47:07Z
2021-11-01T08:48:45Z,42.805,6.029,13.3070,4.60066,2470.427,2021-11-01T10:50:10Z
2021-11-01T08:51:48Z,42.805,6.029,13.3060,4.60046,2470.39,2021-11-01T10:53:13Z
2021-11-01T08:54:51Z,42.805,6.029,13.3078,4.60049,2470.39,2021-11-01T10:56:16Z
2021-11-01T08:57:54Z,42.805,6.029,13.3067,4.60104,2470.404,2021-11-01T10:59:19Z
2021-11-01T09:00:57Z,42.805,6.029,13.3074,4.60062,2470.366,2021-11-01T11:02:22Z
2021-11-01T09:04:01Z,42.805,6.029,13.3070,4.60112,2470.39,2021-11-01T11:05:25Z
2021-11-01T09:07:04Z,42.805,6.029,13.3076,4.60063,2470.38,2021-11-01T11:08:29Z
2021-11-01T09:10:07Z,42.805,6.029,13.3077,4.60052,2470.38,2021-11-01T11:11:32Z
2021-11-01T09:13:10Z,42.805,6.029,13.3081,4.60109,2470.38,2021-11-01T11:14:35Z
2021-11-01T09:16:13Z,42.805,6.029,13.3089,4.60079,2470.39,2021-11-01T11:17:38Z
2021-11-01T09:19:16Z,42.805,6.029,13.3051,4.60104,2470.38,2021-11-01T11:20:41Z
2021-11-01T09:22:19Z,42.805,6.029,13.3055,4.60087,2470.357,2021-11-01T11:23:44Z
2021-11-01T09:25:22Z,42.805,6.029,13.3066,4.60079,2470.366,2021-11-01T11:26:47Z
2021-11-01T09:28:26Z,42.805,6.029,13.3012,4.60072,2470.38,2021-11-01T11:29:50Z
2021-11-01T09:31:29Z,42.805,6.029,13.3059,4.60099,2470.366,2021-11-01T11:32:54Z
2021-11-01T09:34:32Z,42.805,6.029,13.3044,4.60084,2470.38,2021-11-01T11:35:57Z
2021-11-01T09:37:35Z,42.805,6.029,13.3060,4.60094,2470.366,2021-11-01T11:39:00Z
2021-11-01T09:40:38Z,42.805,6.029,13.3071,4.60064,2470.366,2021-11-01T11:42:03Z
2021-11-01T09:43:41Z,42.805,6.029,13.3052,4.60081,2470.39,2021-11-01T11:45:06Z
2021-11-01T09:46:44Z,42.805,6.029,13.3055,4.60114,2470.357,2021-11-01T11:48:09Z
2021-11-01T09:49:47Z,42.805,6.029,13.3062,4.60087,2470.38,2021-11-01T11:51:12Z
2021-11-01T09:52:51Z,42.805,6.029,13.3063,4.60098,2470.38,2021-11-01T11:54:15Z
2021-11-01T09:55:54Z,42.805,6.029,13.3069,4.60097,2470.404,2021-11-01T11:57:19Z
2021-11-01T09:58:57Z,42.805,6.029,13.3047,4.60079,2470.404,2021-11-01T12:00:22Z
2021-11-01T10:02:00Z,42.805,6.029,13.3048,4.60101,2470.366,2021-11-01T12:03:25Z
2021-11-01T10:05:03Z,42.805,6.029,13.3066,4.60114,2470.38,2021-11-01T12:06:28Z
2021-11-01T10:08:06Z,42.805,6.029,13.3049,4.60085,2470.38,2021-11-01T12:09:31Z
2021-11-01T10:11:09Z,42.805,6.029,13.3046,4.60084,2470.38,2021-11-01T12:12:34Z
2021-11-01T10:14:12Z,42.805,6.029,13.3019,4.60081,2470.38,2021-11-01T12:15:37Z
2021-11-01T10:17:16Z,42.805,6.029,13.3013,4.60096,2470.366,2021-11-01T12:18:40Z
2021-11-01T10:20:19Z,42.805,6.029,13.3019,4.60125,2470.357,2021-11-01T12:21:44Z
2021-11-01T10:23:22Z,42.805,6.029,13.3043,4.60107,2470.404,2021-11-01T12:24:47Z
2021-11-01T10:26:25Z,42.805,6.029,13.3044,4.60102,2470.39,2021-11-01T12:27:50Z
2021-11-01T10:29:28Z,42.805,6.029,13.3059,4.60085,2470.343,2021-11-01T12:30:53Z
2021-11-01T10:32:31Z,42.805,6.029,13.3066,4.60055,2470.38,2021-11-01T12:33:56Z
2021-11-01T10:35:34Z,42.805,6.029,13.3046,4.60076,2470.38,2021-11-01T12:36:59Z
2021-11-01T10:38:37Z,42.805,6.029,13.3043,4.60093,2470.366,2021-11-01T12:40:02Z
2021-11-01T10:41:40Z,42.805,6.029,13.3042,4.60059,2470.343,2021-11-01T12:43:05Z
2021-11-01T10:44:44Z,42.805,6.029,13.3021,4.60092,2470.366,2021-11-01T12:46:08Z
2021-11-01T10:47:47Z,42.805,6.029,13.3036,4.60096,2470.404,2021-11-01T12:49:12Z
2021-11-01T10:50:50Z,42.805,6.029,13.3045,4.60127,2470.39,2021-11-01T12:52:15Z
2021-11-01T10:53:53Z,42.805,6.029,13.3047,4.60077,2470.357,2021-11-01T12:55:18Z
2021-11-01T10:56:56Z,42.805,6.029,13.3063,4.60084,2470.38,2021-11-01T12:58:21Z
2021-11-01T10:59:59Z,42.805,6.029,13.3067,4.60077,2470.404,2021-11-01T13:01:24Z
2021-11-01T11:03:02Z,42.805,6.029,13.3058,4.60084,2470.404,2021-11-01T13:04:27Z
2021-11-01T11:06:06Z,42.805,6.029,13.3051,4.60091,2470.38,2021-11-01T13:07:30Z
2021-11-01T11:09:09Z,42.805,6.029,13.3060,4.60097,2470.38,2021-11-01T13:10:33Z
2021-11-01T11:12:12Z,42.805,6.029,13.3054,4.60086,2470.343,2021-11-01T13:13:37Z
2021-11-01T11:15:15Z,42.805,6.029,13.3015,4.60105,2470.38,2021-11-01T13:16:40Z
2021-11-01T11:18:18Z,42.805,6.029,13.3019,4.60125,2470.404,2021-11-01T13:19:43Z
2021-11-01T11:21:21Z,42.805,6.029,13.3018,4.60116,2470.404,2021-11-01T13:22:46Z
2021-11-01T11:24:24Z,42.805,6.029,13.3013,4.60102,2470.404,2021-11-01T13:25:49Z
2021-11-01T11:27:27Z,42.805,6.029,13.3011,4.60082,2470.39,2021-11-01T13:28:52Z
2021-11-01T11:30:30Z,42.805,6.029,13.3039,4.60093,2470.366,2021-11-01T13:31:55Z
2021-11-01T11:33:34Z,42.805,6.029,13.3033,4.60095,2470.39,2021-11-01T13:34:58Z
2021-11-01T11:36:37Z,42.805,6.029,13.3028,4.60077,2470.366,2021-11-01T13:38:02Z
2021-11-01T11:39:40Z,42.805,6.029,13.3051,4.60077,2470.343,2021-11-01T13:41:05Z
2021-11-01T11:42:43Z,42.805,6.029,13.3037,4.60077,2470.38,2021-11-01T13:44:08Z
2021-11-01T11:45:46Z,42.805,6.029,13.3029,4.60102,2470.366,2021-11-01T13:47:11Z
2021-11-01T11:48:49Z,42.805,6.029,13.3031,4.60091,2470.427,2021-11-01T13:50:14Z
2021-11-01T11:51:52Z,42.805,6.029,13.3029,4.60088,2470.404,2021-11-01T13:53:17Z
2021-11-01T11:54:55Z,42.805,6.029,13.3040,4.60080,2470.404,2021-11-01T13:56:20Z
2021-11-01T11:57:59Z,42.805,6.029,13.3054,4.60089,2470.38,2021-11-01T13:59:23Z
2021-11-01T12:01:02Z,42.805,6.029,13.3031,4.60059,2470.366,2021-11-01T14:02:27Z
2021-11-01T12:04:05Z,42.805,6.029,13.3051,4.60121,2470.38,2021-11-01T14:05:30Z
2021-11-01T12:07:08Z,42.805,6.029,13.3024,4.60092,2470.427,2021-11-01T14:08:33Z
2021-11-01T12:10:11Z,42.805,6.029,13.3038,4.60070,2470.404,2021-11-01T14:11:36Z
2021-11-01T12:13:14Z,42.805,6.029,13.3041,4.60079,2470.404,2021-11-01T14:14:39Z
2021-11-01T12:16:17Z,42.805,6.029,13.3056,4.60084,2470.413,2021-11-01T14:17:42Z
2021-11-01T12:19:20Z,42.805,6.029,13.3046,4.60104,2470.39,2021-11-01T14:20:45Z
2021-11-01T12:22:24Z,42.805,6.029,13.3032,4.60061,2470.39,2021-11-01T14:23:48Z
2021-11-01T12:25:27Z,42.805,6.029,13.3037,4.60075,2470.39,2021-11-01T14:26:52Z
2021-11-01T12:28:30Z,42.805,6.029,13.3037,4.60084,2470.38,2021-11-01T14:29:55Z
2021-11-01T12:31:33Z,42.805,6.029,13.3052,4.60101,2470.404,2021-11-01T14:32:58Z
2021-11-01T12:34:36Z,42.805,6.029,13.3034,4.60081,2470.413,2021-11-01T14:36:01Z
2021-11-01T12:37:39Z,42.805,6.029,13.3062,4.60067,2470.427,2021-11-01T14:39:04Z
2021-11-01T12:40:42Z,42.805,6.029,13.3031,4.60086,2470.39,2021-11-01T14:42:07Z
2021-11-01T12:43:45Z,42.805,6.029,13.3045,4.60062,2470.427,2021-11-01T14:45:10Z
2021-11-01T12:46:49Z,42.805,6.029,13.3039,4.60091,2470.404,2021-11-01T14:48:13Z
2021-11-01T12:49:52Z,42.805,6.029,13.3019,4.60097,2470.404,2021-11-01T14:51:17Z
2021-11-01T12:52:55Z,42.805,6.029,13.3032,4.60046,2470.404,2021-11-01T14:54:20Z
2021-11-01T12:55:58Z,42.805,6.029,13.3079,4.60076,2470.45,2021-11-01T14:57:23Z
2021-11-01T12:59:01Z,42.805,6.029,13.3063,4.60095,2470.413,2021-11-01T15:00:26Z
2021-11-01T13:02:04Z,42.805,6.029,13.3048,4.60116,2470.404,2021-11-01T15:03:29Z
2021-11-01T13:05:07Z,42.805,6.029,13.3066,4.60100,2470.413,2021-11-01T15:06:32Z
2021-11-01T13:08:10Z,42.805,6.029,13.3070,4.60080,2470.39,2021-11-01T15:09:35Z
2021-11-01T13:11:14Z,42.805,6.029,13.3062,4.60104,2470.437,2021-11-01T15:12:38Z
2021-11-01T13:14:17Z,42.805,6.029,13.3068,4.60096,2470.39,2021-11-01T15:15:42Z
2021-11-01T13:17:20Z,42.805,6.029,13.3077,4.60070,2470.413,2021-11-01T15:18:45Z
2021-11-01T13:20:23Z,42.805,6.029,13.3039,4.60123,2470.427,2021-11-01T15:21:48Z
2021-11-01T13:23:26Z,42.805,6.029,13.3072,4.60086,2470.45,2021-11-01T15:24:51Z
2021-11-01T13:26:29Z,42.805,6.029,13.3074,4.60095,2470.413,2021-11-01T15:27:54Z
2021-11-01T13:29:32Z,42.805,6.029,13.3069,4.60104,2470.413,2021-11-01T15:30:57Z
2021-11-01T13:32:35Z,42.805,6.029,13.3076,4.60101,2470.45,2021-11-01T15:34:00Z
2021-11-01T13:35:39Z,42.805,6.029,13.3082,4.60127,2470.45,2021-11-01T15:37:03Z
2021-11-01T13:38:42Z,42.805,6.029,13.3085,4.60120,2470.45,2021-11-01T15:40:07Z
2021-11-01T13:41:45Z,42.805,6.029,13.3027,4.60062,2470.427,2021-11-01T15:43:10Z
2021-11-01T13:44:48Z,42.805,6.029,13.3045,4.60070,2470.437,2021-11-01T15:46:13Z
2021-11-01T13:47:51Z,42.805,6.029,13.3080,4.60087,2470.474,2021-11-01T15:49:16Z
2021-11-01T13:50:54Z,42.805,6.029,13.3076,4.60095,2470.45,2021-11-01T15:52:19Z
2021-11-01T13:53:57Z,42.805,6.029,13.3054,4.60126,2470.46,2021-11-01T15:55:22Z
2021-11-01T13:57:00Z,42.805,6.029,13.3073,4.60087,2470.45,2021-11-01T15:58:25Z
2021-11-01T14:00:04Z,42.805,6.029,13.3042,4.60133,2470.474,2021-11-01T16:01:28Z
2021-11-01T14:03:07Z,42.805,6.029,13.3072,4.60173,2470.46,2021-11-01T16:04:32Z
2021-11-01T14:06:10Z,42.805,6.029,13.3076,4.60064,2470.45,2021-11-01T16:07:35Z
2021-11-01T14:09:13Z,42.805,6.029,13.3051,4.60107,2470.474,2021-11-01T16:10:38Z
2021-11-01T14:12:16Z,42.805,6.029,13.3084,4.60110,2470.474,2021-11-01T16:13:41Z
2021-11-01T14:15:19Z,42.805,6.029,13.3082,4.60127,2470.497,2021-11-01T16:16:44Z
2021-11-01T14:18:22Z,42.805,6.029,13.3065,4.60088,2470.46,2021-11-01T16:19:47Z
2021-11-01T14:21:25Z,42.805,6.029,13.3067,4.60094,2470.474,2021-11-01T16:22:50Z
2021-11-01T14:24:29Z,42.805,6.029,13.3072,4.60084,2470.497,2021-11-01T16:25:53Z
2021-11-01T14:27:32Z,42.805,6.029,13.3044,4.60075,2470.507,2021-11-01T16:28:57Z
2021-11-01T14:30:35Z,42.805,6.029,13.3038,4.60052,2470.507,2021-11-01T16:32:00Z
2021-11-01T14:33:38Z,42.805,6.029,13.3061,4.60074,2470.497,2021-11-01T16:35:03Z
2021-11-01T14:36:41Z,42.805,6.029,13.3056,4.60083,2470.52,2021-11-01T16:38:06Z
2021-11-01T14:39:44Z,42.805,6.029,13.3064,4.60076,2470.52,2021-11-01T16:41:09Z
2021-11-01T14:42:47Z,42.805,6.029,13.3076,4.60086,2470.497,2021-11-01T16:44:12Z
2021-11-01T14:45:50Z,42.805,6.029,13.3044,4.60107,2470.483,2021-11-01T16:47:15Z
2021-11-01T14:48:54Z,42.805,6.029,13.3056,4.60092,2470.507,2021-11-01T16:50:18Z
2021-11-01T14:51:57Z,42.805,6.029,13.3051,4.60084,2470.497,2021-11-01T16:53:22Z
2021-11-01T14:55:00Z,42.805,6.029,13.3036,4.60053,2470.483,2021-11-01T16:56:25Z
2021-11-01T14:58:03Z,42.805,6.029,13.3057,4.60113,2470.507,2021-11-01T16:59:28Z
2021-11-01T15:01:06Z,42.805,6.029,13.3075,4.60111,2470.497,2021-11-01T17:02:31Z